Location: Arboyeti
(42.1122°N, 44.6017°E)
Time: 09:36:31
(UTC+00:00)

Cosmos 2058 - Pass Details

Date: 19 April 2021
Orbit: 562 x 583 km, 82.5° (Epoch: 05 May)

Event Time Altitude Azimuth Distance (km) Brightness Sun altitude
Rises 17:14:49 0° 350° (N) 2,806 7.1 -15.6°
Reaches altitude 10° 17:17:01 10° 350° (N) 1,899 6.2 -15.9°
Maximum altitude 17:21:12 80° 265° (W) 590 3.0 -16.6°
Enters shadow 17:24:12 18° 178° (S) 1,417 4.6 -17.1°
